Location: Belfast
(54.5830°N, 5.9330°W)
Time: 14:06:23
(UTC+01:00)

ISS - Pass Details

Date: 26 May 2017
Orbit: 402 x 408 km, 51.6° (Epoch: 26 May)

Event Time Altitude Azimuth Distance (km) Brightness Sun altitude
Rises 00:45:53 0° 258° (WSW) 2,332 0.0 -13.9°
Reaches altitude 10° 00:48:00 10° 254° (WSW) 1,471 -1.1 -14.0°
Maximum altitude 00:51:13 50° 177° (S) 525 -3.7 -14.0°
Drops below altitude 10° 00:54:25 10° 101° (E) 1,468 -1.2 -14.1°
Sets 00:56:31 0° 96° (E) 2,327 -0.1 -14.1°
